Location: Hackberry
(29.5783°N, 96.8797°W)
Time: 03:00:25
(UTC+00:00)

Explorer 11/Cluster Stage 4 - Pass Details

Date: 13 November 2024
Orbit: 464 x 1202 km, 28.8° (Epoch: 03 December)

Event Time Altitude Azimuth Distance (km) Brightness Sun altitude
Exits shadow 11:28:29 33° 249° (WSW) 993 6.6 -18.0°
Maximum altitude 11:30:20 72° 173° (S) 590 5.9 -17.6°
Drops below altitude 10° 11:34:13 10° 89° (E) 1,714 9.6 -16.8°
Sets 11:36:16 0° 87° (E) 2,543 10.7 -16.4°
